Temperature
23 24 25 26 26 26 24 22 22 22 22 22 22 22 22 22 22 22 22 22 22 22 21 21 21 21 20 20 20 19 19 19 18 18 18 17 17 17 17 17 16 16 16 16
23 25 25 25 25 25 25 24 23 23 22 22 22 22 22 22 21 21 21 21 21 21 21 21 21 20 20 20 20 19 19 19 18 18 17 17 17 17 16 16 16 16 16 16
21 23 24 23 23 24 23 23 22 22 21 21 21 21 21 21 21 21 21 21 21 21 21 21 20 20 20 20 19 19 19 18 18 18 17 17 17 16 16 16 16 16 15 15
19 22 22 22 23 24 23 22 22 22 21 21 21 21 22 22 21 21 21 21 21 21 21 20 20 20 20 19 19 19 18 18 17 17 17 17 16 16 16 16 15 15 15 15
18 19 21 22 23 23 22 21 21 21 21 21 21 21 20 21 21 21 21 21 21 20 20 20 20 20 19 19 19 18 18 17 17 17 16 16 16 16 15 15 15 15 15 15
18 20 20 20 22 23 22 20 20 20 20 20 20 18 18 20 21 21 21 20 20 20 20 20 19 19 19 18 18 18 17 17 17 16 16 16 15 15 15 15 15 15 14 14
18 19 19 20 21 22 20 19 20 21 20 20 19 19 20 20 20 20 20 20 19 19 19 19 19 18 18 18 17 17 17 17 16 16 16 15 15 15 15 14 14 14 14 14
17 18 18 20 20 19 19 20 20 20 20 20 20 20 19 19 19 19 19 19 19 19 18 18 18 18 17 17 17 17 17 16 16 16 15 15 15 15 14 14 14 14 14 14
16 17 18 20 20 20 21 20 20 20 20 20 19 19 19 18 18 18 18 18 18 18 18 17 17 17 17 17 16 16 16 16 16 15 15 15 14 14 14 14 14 14 13 13
16 17 18 19 20 20 20 20 20 20 20 20 19 19 18 18 18 18 18 18 18 17 17 17 17 16 16 16 16 16 15 15 15 15 14 14 14 14 14 13 13 13 13 13
16 16 17 18 19 19 19 20 20 20 20 19 19 18 18 18 17 17 17 17 17 17 16 16 16 16 16 15 15 15 15 14 14 14 14 14 14 14 13 13 13 13 13 13
15 16 16 17 18 19 19 19 19 19 18 18 18 18 18 17 17 17 17 16 16 16 16 16 15 15 15 15 15 14 14 14 14 14 13 13 13 13 13 13 13 13 13 13
18 18 18 18 18 18 18 18 18 18 18 18 17 17 17 17 17 16 16 16 16 16 15 15 15 15 14 14 14 14 14 14 13 13 13 13 13 13 13 13 13 13 13 12
18 18 17 17 17 18 18 17 17 17 17 17 17 17 17 16 16 16 16 15 15 15 15 15 15 14 14 14 14 14 13 13 13 13 13 13 13 13 13 13 13 12 12 12
17 17 17 17 17 17 17 17 17 17 16 16 16 16 16 16 16 15 15 15 15 15 14 14 14 14 14 14 13 13 13 13 13 13 13 12 12 12 12 12 12 12 12 12
17 17 17 17 16 16 16 16 16 16 16 16 16 15 15 15 15 15 15 15 14 14 14 14 14 14 13 13 13 13 13 13 12 12 12 12 12 12 12 12 12 12 12 11
16 16 16 16 16 16 16 16 16 15 15 15 15 15 15 15 15 15 14 14 14 14 14 14 14 13 13 13 13 12 12 12 12 12 12 12 12 12 12 11 11 11 11 11
16 15 15 15 15 15 15 15 15 15 15 15 15 14 14 14 14 14 14 14 14 13 13 13 13 13 13 12 12 12 12 12 12 12 12 12 11 11 11 11 11 11 11 11
15 15 15 15 15 15 15 15 14 14 14 14 14 14 14 14 14 14 13 13 13 13 13 13 13 12 12 12 12 12 12 12 12 12 11 11 11 11 11 11 11 11 10 10
14 14 14 14 14 14 14 14 14 14 14 14 14 13 13 13 13 13 13 13 13 13 12 12 12 12 12 12 12 11 11 11 11 11 11 11 11 11 10 10 10 10 10 10
14 14 14 14 14 14 14 14 14 13 13 13 13 13 13 13 13 13 12 12 12 12 12 12 12 12 12 11 11 11 11 11 11 11 11 11 11 10 10 10 10 10 10 10
13 13 13 13 13 13 13 13 13 13 13 13 13 12 12 12 12 12 12 12 12 12 12 11 11 11 11 11 11 11 11 11 11 11 10 10 10 10 10 10 10 9 9 9
13 13 12 13 13 13 13 12 12 12 12 12 12 12 12 12 12 12 11 11 11 11 11 11 11 11 11 11 11 11 11 11 10 10 10 10 10 10 9 9 9 9 9 9
12 12 12 12 12 12 12 12 12 12 12 12 12 12 12 11 11 11 11 11 11 11 11 10 10 10 10 10 10 10 10 10 10 10 10 9 9 9 9 9 9 9 9 8
12 12 12 12 12 12 12 11 11 11 11 11 11 11 11 11 11 11 11 11 10 10 10 10 10 10 10 10 10 10 10 9 9 9 9 9 9 9 9 9 8 8 8 8
12 12 12 12 12 12 11 11 11 11 11 11 11 11 11 11 11 10 10 10 10 10 10 10 10 10 10 10 10 9 9 9 9 9 9 9 9 8 8 8 8 8 8 8
12 12 12 12 11 11 11 11 11 11 11 11 10 10 10 10 10 10 10 10 10 10 10 10 10 9 9 9 9 9 9 9 8 8 8 8 8 8 8 8 8 8 8 7
Wind_Speed
4 4 1 2 4 4 2 6 7 6 6 5 5 7 6 7 7 7 7 7 7 7 6 6 5 5 5 5 5 6 5 5 5 4 3 3 3 3 3 2 3 2 2 2
3 3 3 4 5 3 1 1 3 4 3 3 3 6 7 7 9 8 5 5 6 6 6 6 6 5 4 4 5 5 5 5 4 4 3 3 3 2 2 2 2 1 2 2
3 4 4 3 4 2 1 1 4 4 4 3 5 6 7 8 8 9 7 5 5 6 6 6 6 6 5 5 4 5 5 4 4 4 3 3 3 2 2 2 2 2 2 2
1 3 2 5 3 2 4 3 3 2 3 5 6 5 5 7 8 7 6 6 5 4 4 4 5 5 5 4 5 5 4 3 3 3 3 2 2 3 3 3 2 2 3 3
3 3 3 4 4 1 2 3 5 3 3 4 6 7 4 3 5 6 5 5 4 5 5 4 4 5 5 4 4 4 3 3 3 3 3 3 3 4 3 3 3 3 3 3
3 3 4 5 6 3 5 2 5 3 4 3 5 4 2 1 3 4 5 4 4 4 5 5 4 5 5 4 4 4 4 3 3 3 3 3 4 3 2 3 3 3 3 3
3 3 4 6 6 3 3 4 3 2 4 4 4 5 4 3 4 5 5 5 5 5 4 3 4 5 5 4 3 3 3 3 2 3 3 3 3 2 2 2 2 2 2 2
2 2 5 5 2 3 5 3 1 4 4 5 5 6 5 5 5 5 5 5 5 5 3 3 4 5 4 2 1 1 2 2 2 2 2 2 2 2 1 1 1 2 2 2
4 5 5 1 3 3 4 4 2 3 4 6 5 5 5 4 4 3 4 5 5 5 4 3 3 4 3 1 1 2 1 1 1 1 1 1 2 2 1 1 2 2 2 3
2 1 1 3 3 2 2 3 3 4 5 6 6 6 5 4 3 3 3 3 4 5 4 2 1 2 2 1 1 2 1 1 1 1 1 1 1 2 2 2 2 2 2 3
1 1 2 4 3 2 2 4 4 5 5 6 6 5 5 5 4 3 2 2 3 3 3 2 2 1 1 1 2 2 0 1 1 1 2 2 2 2 3 4 4 5 4 4
4 5 3 3 2 2 3 3 3 4 4 4 5 5 5 4 3 3 3 3 3 2 2 1 1 1 0 0 2 2 1 1 1 2 2 2 2 2 3 4 5 6 7 5
3 3 2 2 1 2 2 2 4 4 4 4 3 4 5 3 2 3 4 4 4 3 2 1 1 1 1 1 1 2 2 3 2 2 2 3 3 3 3 4 3 3 5 5
0 2 2 1 1 2 3 3 4 4 4 4 4 4 4 3 3 3 3 3 3 3 2 1 1 1 2 1 1 2 2 3 3 3 3 3 3 3 3 3 2 2 3 5
1 2 3 1 1 2 3 3 4 3 3 3 3 3 3 3 3 2 2 3 3 2 1 1 1 2 3 1 1 2 2 2 3 3 3 3 3 2 2 2 2 2 2 2
1 1 2 3 2 2 3 3 3 2 2 2 1 1 1 2 2 2 1 2 3 2 2 2 2 3 3 2 2 2 3 4 3 2 2 2 2 2 2 2 2 3 3 3
2 1 1 2 2 2 2 2 3 2 2 1 2 2 1 1 1 0 1 1 2 2 2 3 3 3 2 2 2 2 3 3 3 2 3 3 3 3 3 3 3 3 4 4
2 2 2 3 3 2 2 2 2 2 2 2 2 2 2 2 2 2 2 1 0 1 2 3 3 2 2 3 2 2 2 2 2 3 3 2 3 3 3 3 3 3 3 2
0 1 2 2 2 2 2 2 2 2 1 2 2 2 2 2 2 1 1 1 1 3 4 4 3 2 2 3 2 2 2 2 2 2 2 3 3 3 3 3 3 3 3 2
1 1 2 1 1 2 2 1 1 1 1 2 2 1 1 1 1 0 0 2 3 4 4 3 2 2 3 3 3 2 2 2 2 2 2 2 3 3 3 3 3 3 3 3
1 1 1 1 1 1 1 2 2 1 0 1 1 1 2 2 1 1 1 2 4 3 2 2 2 2 3 3 3 2 2 2 3 2 2 2 2 2 3 3 3 3 3 2
0 0 0 0 1 0 1 1 2 1 0 0 0 1 1 1 1 1 1 3 3 2 1 1 2 3 3 3 2 2 2 3 2 2 2 2 2 2 2 1 1 1 1 2
1 1 1 1 1 1 1 1 0 1 1 1 1 1 2 2 2 2 2 3 2 3 2 2 3 3 4 2 2 2 2 1 1 2 2 2 2 2 2 1 1 1 1 1
1 2 2 1 1 1 1 3 2 1 1 1 1 1 2 1 1 2 3 3 3 3 2 3 4 4 4 1 1 1 1 1 1 1 2 1 1 1 1 1 1 1 2 2
2 2 1 1 1 1 2 2 1 0 0 0 0 1 1 1 2 2 2 2 2 2 2 4 5 4 2 1 1 1 1 1 1 2 2 2 1 1 2 2 2 2 1 1
1 1 2 2 2 2 2 2 1 1 1 0 1 1 1 1 1 1 1 1 2 2 2 2 2 2 2 2 2 2 1 1 1 1 1 1 1 1 1 1 2 1 1 1
1 1 1 1 0 1 1 1 1 1 1 1 1 2 1 1 1 1 1 1 1 2 2 2 2 1 2 2 2 1 1 1 1 1 1 1 1 1 2 2 2 1 1 1
Wind_Direction
205 230 249 282 297 290 218 191 184 205 191 213 190 167 151 134 123 119 127 133 139 144 145 145 150 157 163 170 171 170 167 174 188 194 190 194 206 214 211 212 224 230 235 244
338 330 14 10 357 359 7 100 162 143 187 220 171 123 114 122 123 120 127 140 143 145 147 153 159 162 162 169 167 161 166 179 183 183 186 191 202 206 215 229 236 232 232 232
288 312 29 347 329 27 45 5 150 176 215 160 122 135 145 139 131 133 136 148 157 165 165 164 162 157 166 171 165 159 170 177 179 183 185 194 199 193 213 224 232 234 235 229
158 39 213 234 275 112 93 31 35 112 136 139 147 144 131 132 132 136 137 147 156 161 157 161 162 157 154 146 157 165 171 175 178 172 183 192 187 208 226 227 219 227 240 238
131 167 248 298 318 306 130 4 7 62 96 110 105 77 52 77 123 135 136 145 154 150 143 143 150 152 140 138 149 155 168 182 186 178 187 199 210 222 229 227 232 232 234 230
127 155 209 254 292 293 105 13 339 85 114 115 100 100 240 310 110 115 109 115 128 122 115 121 133 135 132 140 146 170 181 189 197 189 199 214 223 225 226 226 233 234 248 245
152 185 243 266 291 37 108 237 298 96 123 131 138 165 173 121 96 102 106 109 112 110 113 128 130 120 122 124 152 189 177 178 189 195 197 204 217 220 229 236 237 238 245 260
133 163 253 294 22 119 193 207 122 93 101 112 116 110 107 107 104 108 106 101 106 104 98 102 110 114 116 143 194 149 148 159 183 198 203 209 208 234 226 212 221 237 249 271
180 210 243 328 112 155 149 128 125 124 122 118 117 116 114 111 110 114 119 116 113 114 104 91 103 119 133 201 142 106 114 172 197 206 215 202 198 220 233 221 217 233 235 248
72 315 347 42 49 55 101 129 144 138 135 131 127 127 117 114 113 107 101 115 115 114 114 112 108 115 150 163 124 112 130 221 202 192 234 232 212 204 204 217 222 228 236 247
119 254 23 5 16 36 59 79 94 103 122 140 133 134 135 128 120 111 105 100 111 126 143 161 149 133 117 117 118 119 164 242 236 219 213 222 243 238 226 226 217 212 220 218
211 222 180 257 288 44 68 81 97 107 98 102 119 127 128 133 137 128 124 114 113 118 129 132 120 114 315 172 139 138 201 260 238 226 225 225 235 288 299 268 255 228 216 209
206 213 185 240 356 48 70 97 108 112 118 111 108 126 133 134 135 130 126 128 139 148 151 151 140 190 243 219 189 184 215 241 249 238 229 229 224 222 269 312 320 284 243 225
96 82 41 7 14 50 91 95 92 93 98 112 120 115 124 123 121 132 150 163 159 148 143 146 148 243 257 236 234 226 236 245 247 243 234 229 226 227 223 221 257 297 289 256
258 165 179 162 89 81 84 89 90 86 83 81 102 113 126 141 156 186 196 175 144 131 158 171 237 269 268 249 256 254 253 256 254 252 244 235 234 233 230 223 228 247 276 290
156 81 114 108 112 106 91 91 101 102 111 106 105 137 155 171 184 199 200 171 155 184 218 218 246 265 275 278 277 266 257 263 258 250 244 234 226 223 225 215 221 232 239 251
150 204 193 164 161 151 136 146 147 157 150 146 180 188 179 140 110 16 267 222 190 213 229 224 248 267 273 257 251 254 258 271 267 261 246 232 221 214 212 212 224 240 242 239
146 172 175 174 166 161 158 149 150 149 163 180 164 142 145 152 176 229 260 268 23 318 272 244 239 267 288 276 260 257 258 255 243 243 245 239 234 225 216 218 225 232 249 261
73 160 153 131 132 139 134 144 167 181 181 154 147 160 169 177 194 219 238 196 218 262 267 257 251 266 280 277 276 262 257 252 245 251 248 241 234 225 218 218 224 225 228 223
318 109 104 96 102 135 147 160 148 151 166 141 120 119 137 198 226 297 266 227 236 242 246 249 255 262 265 275 281 267 260 247 244 249 241 232 231 229 222 215 213 224 229 218
40 85 104 111 113 148 167 161 144 136 352 121 138 198 226 235 233 199 191 276 285 277 261 255 251 264 272 282 277 264 262 257 249 237 232 231 232 234 232 228 226 226 222 212
72 61 135 154 113 245 246 168 150 144 131 240 260 246 228 243 249 246 240 240 265 271 267 272 265 270 282 284 270 265 262 255 245 235 227 218 215 221 224 223 231 248 245 214
170 156 165 201 179 195 284 296 226 177 192 211 226 242 224 217 203 196 262 268 255 257 255 262 268 277 283 280 275 278 279 264 238 223 222 216 212 208 201 204 205 209 230 227
164 170 192 206 134 116 262 270 264 244 192 179 212 202 179 186 273 254 236 247 251 253 254 261 267 275 281 282 291 297 309 288 255 240 230 220 216 204 199 203 211 223 227 225
173 181 184 160 159 210 235 248 248 224 114 126 291 275 235 191 218 255 261 258 248 237 258 262 258 260 256 259 260 251 254 253 260 250 234 222 211 196 196 201 215 222 217 209
162 181 188 192 196 199 189 178 193 210 170 115 324 305 302 307 290 284 282 285 277 269 279 280 271 256 245 254 257 254 256 271 284 281 255 208 202 206 218 214 214 213 208 211
66 88 99 48 26 145 146 152 161 174 166 165 249 293 316 332 316 280 265 274 292 291 292 295 296 281 261 257 256 251 230 220 226 215 222 198 192 215 217 210 198 191 202 211
Height
1485 1480 1479 1479 1478 1477 1483 1490 1499 1496 1493 1486 1481 1480 1481 1481 1483 1486 1488 1489 1490 1492 1494 1495 1497 1498 1500 1501 1502 1503 1503 1504 1505 1506 1506 1507 1507 1507 1507 1506 1506 1505 1505 1504
1485 1477 1478 1481 1478 1477 1478 1481 1485 1486 1489 1480 1478 1479 1481 1482 1483 1486 1488 1489 1490 1491 1493 1494 1495 1496 1498 1499 1500 1500 1501 1502 1503 1503 1504 1503 1503 1504 1504 1504 1503 1503 1502 1502
1496 1484 1483 1494 1485 1482 1483 1481 1482 1488 1485 1479 1480 1480 1481 1483 1484 1485 1487 1489 1490 1491 1492 1493 1494 1495 1496 1497 1498 1499 1499 1500 1500 1500 1501 1501 1501 1501 1501 1501 1500 1500 1499 1499
1498 1494 1506 1494 1478 1477 1480 1481 1478 1478 1478 1478 1479 1480 1481 1482 1483 1485 1487 1489 1489 1490 1491 1493 1493 1494 1494 1495 1496 1497 1497 1498 1498 1498 1498 1498 1498 1498 1498 1498 1497 1496 1496 1496
1503 1506 1500 1487 1478 1477 1481 1486 1481 1480 1479 1479 1480 1481 1484 1484 1484 1485 1486 1488 1489 1489 1490 1491 1492 1492 1493 1493 1494 1495 1496 1496 1496 1496 1496 1496 1496 1495 1495 1495 1494 1493 1493 1493
1499 1503 1506 1492 1477 1473 1477 1490 1481 1479 1480 1480 1480 1487 1487 1484 1483 1484 1486 1488 1489 1489 1490 1490 1491 1491 1492 1492 1492 1493 1493 1494 1494 1494 1494 1494 1493 1493 1492 1492 1491 1490 1490 1490
1498 1501 1496 1482 1475 1473 1491 1493 1481 1478 1478 1478 1479 1482 1483 1483 1483 1484 1485 1487 1488 1489 1489 1489 1490 1490 1490 1491 1491 1492 1492 1492 1492 1492 1491 1491 1491 1490 1490 1489 1488 1488 1487 1487
1498 1502 1499 1478 1476 1481 1484 1479 1479 1478 1478 1478 1479 1480 1481 1482 1483 1485 1485 1486 1487 1488 1488 1489 1489 1489 1489 1489 1490 1490 1490 1490 1490 1489 1489 1488 1488 1487 1486 1486 1485 1485 1484 1484
1491 1493 1482 1477 1477 1478 1478 1478 1478 1478 1478 1479 1479 1480 1481 1482 1483 1484 1484 1484 1485 1486 1487 1488 1488 1488 1488 1488 1488 1488 1488 1487 1487 1487 1486 1486 1485 1484 1483 1483 1482 1482 1481 1481
1486 1484 1480 1479 1478 1478 1478 1477 1477 1477 1478 1479 1479 1480 1481 1482 1483 1483 1483 1483 1483 1484 1485 1486 1486 1486 1487 1486 1486 1486 1485 1485 1484 1484 1483 1483 1483 1482 1481 1480 1480 1479 1478 1478
1485 1482 1480 1480 1479 1479 1478 1477 1477 1477 1478 1478 1478 1479 1480 1481 1481 1481 1482 1483 1483 1483 1483 1483 1484 1484 1484 1484 1484 1483 1483 1482 1482 1481 1481 1480 1480 1479 1478 1478 1477 1477 1476 1475
1484 1480 1481 1480 1479 1478 1478 1477 1478 1478 1478 1478 1478 1478 1479 1480 1480 1480 1481 1481 1482 1482 1482 1482 1482 1481 1481 1481 1481 1480 1479 1479 1478 1478 1478 1477 1477 1476 1475 1475 1475 1474 1473 1473
1476 1477 1477 1478 1477 1477 1477 1477 1477 1477 1477 1477 1478 1478 1478 1479 1479 1480 1480 1480 1480 1480 1481 1480 1480 1479 1479 1478 1478 1477 1476 1475 1475 1474 1474 1474 1473 1473 1472 1472 1471 1471 1470 1469
1475 1475 1476 1476 1477 1476 1476 1476 1476 1477 1477 1477 1478 1478 1478 1479 1479 1479 1479 1478 1478 1478 1478 1478 1477 1477 1476 1475 1475 1474 1473 1472 1472 1471 1471 1470 1470 1469 1469 1468 1467 1467 1467 1466
1474 1475 1475 1475 1476 1476 1476 1476 1475 1475 1476 1476 1477 1477 1478 1478 1478 1477 1477 1477 1476 1476 1476 1475 1475 1474 1473 1472 1471 1471 1470 1469 1468 1468 1467 1467 1467 1466 1466 1465 1464 1464 1463 1463
1473 1473 1474 1473 1474 1473 1474 1474 1474 1474 1474 1474 1475 1475 1476 1476 1476 1475 1475 1475 1474 1474 1473 1473 1472 1472 1471 1470 1469 1468 1467 1466 1465 1465 1464 1464 1463 1463 1462 1462 1461 1460 1460 1459
1471 1471 1472 1472 1472 1473 1473 1473 1473 1473 1473 1473 1473 1473 1474 1474 1473 1473 1473 1473 1472 1472 1472 1471 1470 1469 1468 1467 1466 1465 1463 1463 1462 1461 1461 1460 1460 1459 1459 1458 1458 1457 1457 1456
1469 1469 1469 1470 1470 1470 1471 1471 1472 1472 1472 1471 1471 1471 1471 1471 1470 1470 1470 1470 1470 1470 1469 1469 1467 1466 1465 1464 1463 1462 1460 1459 1459 1458 1457 1457 1456 1456 1455 1455 1454 1454 1454 1453
1467 1467 1468 1468 1469 1469 1469 1469 1470 1470 1470 1470 1469 1469 1469 1468 1468 1468 1468 1467 1467 1466 1466 1466 1465 1463 1462 1461 1460 1459 1457 1456 1455 1455 1454 1454 1453 1452 1452 1451 1451 1451 1450 1450
1464 1465 1465 1466 1467 1467 1467 1468 1468 1468 1468 1467 1467 1467 1466 1466 1466 1465 1465 1464 1464 1463 1463 1462 1461 1460 1459 1458 1457 1456 1455 1453 1452 1451 1451 1450 1449 1449 1448 1448 1448 1447 1447 1446
1461 1462 1463 1463 1464 1465 1465 1465 1465 1465 1465 1465 1464 1464 1463 1463 1463 1462 1462 1461 1461 1460 1460 1459 1458 1457 1455 1454 1453 1452 1452 1450 1449 1448 1448 1447 1446 1445 1445 1444 1444 1444 1443 1442
1459 1460 1461 1461 1462 1462 1462 1462 1462 1462 1462 1462 1462 1462 1461 1460 1460 1459 1459 1459 1458 1457 1456 1455 1454 1453 1452 1451 1450 1449 1449 1448 1447 1446 1445 1444 1443 1442 1441 1441 1440 1440 1440 1439
1457 1458 1459 1459 1459 1459 1460 1460 1460 1459 1459 1460 1460 1459 1459 1458 1458 1457 1456 1456 1455 1455 1453 1452 1451 1450 1449 1448 1447 1446 1446 1445 1444 1443 1442 1441 1440 1439 1438 1438 1437 1437 1436 1436
1455 1456 1457 1457 1457 1458 1458 1458 1458 1458 1458 1458 1457 1457 1457 1456 1455 1455 1454 1453 1452 1452 1450 1449 1449 1448 1447 1446 1445 1444 1443 1442 1441 1440 1439 1438 1438 1437 1436 1435 1435 1434 1434 1433
1454 1454 1455 1455 1455 1456 1456 1456 1456 1456 1455 1455 1455 1455 1454 1454 1453 1452 1451 1450 1450 1449 1448 1447 1446 1445 1445 1444 1442 1441 1440 1439 1438 1437 1437 1435 1435 1434 1434 1433 1432 1431 1430 1429
1452 1453 1453 1453 1454 1454 1454 1454 1454 1454 1453 1453 1453 1452 1452 1451 1451 1450 1449 1448 1447 1446 1445 1444 1443 1443 1442 1441 1440 1439 1438 1437 1436 1435 1434 1433 1432 1431 1431 1430 1429 1428 1427 1426
1452 1452 1452 1452 1453 1453 1453 1452 1452 1452 1452 1451 1451 1450 1450 1449 1448 1447 1446 1445 1445 1444 1443 1442 1441 1440 1439 1438 1437 1436 1435 1434 1434 1433 1432 1430 1430 1429 1428 1427 1426 1425 1424 1423